• In Hungary
  • List of Countries
  • For 7 days
  • Water Temperature
  • Satellite Maps
  • Weather Map
  • News
  • Weather Widgets
  • user-avatar
    Login

    Hourly Weather Ichin

    Today, 24 September, Monday

    Time Temperature Precipitation Wind Pressure Humidity
    00:00 +16°C° 0 mm 2 mps 686 mmHg 74%
    01:00 +16°C° 0 mm 2 mps 686 mmHg 72%
    02:00 +15°C° 0 mm 2 mps 686 mmHg 71%
    03:00 +15°C° 0 mm 2 mps 685 mmHg 66%
    04:00 +15°C° 0 mm 2 mps 686 mmHg 64%
    05:00 +15°C° 0 mm 2 mps 686 mmHg 62%
    06:00 +15°C° 0 mm 2 mps 686 mmHg 60%
    07:00 +17°C° 0 mm 2 mps 687 mmHg 56%
    08:00 +19°C° 0 mm 2 mps 687 mmHg 51%
    09:00 +23°C° 0 mm 2 mps 688 mmHg 48%
    10:00 +23°C° 0 mm 2 mps 688 mmHg 48%
    11:00 +22°C° 0 mm 3 mps 688 mmHg 48%
    12:00 +24°C° 0 mm 3 mps 688 mmHg 47%
    13:00 +24°C° 0 mm 3 mps 688 mmHg 50%
    14:00 +22°C° 0 mm 3 mps 688 mmHg 52%
    15:00 +22°C° 0 mm 3 mps 688 mmHg 54%
    16:00 +20°C° 0 mm 2 mps 688 mmHg 62%
    17:00 +19°C° 0 mm 2 mps 687 mmHg 70%
    18:00 +18°C° 0 mm 1 mps 687 mmHg 77%
    19:00 +18°C° 0 mm 1 mps 687 mmHg 77%
    20:00 +18°C° 0 mm 1 mps 687 mmHg 76%
    21:00 +17°C° 0 mm 2 mps 687 mmHg 76%
    22:00 +16°C° 0 mm 2 mps 687 mmHg 74%
    23:00 +16°C° 0 mm 2 mps 687 mmHg 73%

    Tomorrow, 25 September, Tuesday

    Time Temperature Precipitation Wind Pressure Humidity
    00:00 +16°C° 0 mm 2 mps 686 mmHg 72%
    01:00 +16°C° 0 mm 2 mps 686 mmHg 70%
    02:00 +16°C° 0 mm 2 mps 686 mmHg 69%
    03:00 +16°C° 0 mm 2 mps 686 mmHg 67%
    04:00 +16°C° 0 mm 2 mps 685 mmHg 67%
    05:00 +16°C° 0 mm 3 mps 685 mmHg 66%
    06:00 +16°C° 0 mm 3 mps 685 mmHg 66%
    07:00 +19°C° 0 mm 2 mps 685 mmHg 58%
    08:00 +21°C° 0 mm 2 mps 685 mmHg 51%
    09:00 +25°C° 0 mm 2 mps 685 mmHg 44%
    10:00 +26°C° 0 mm 2 mps 685 mmHg 42%
    11:00 +27°C° 0 mm 3 mps 685 mmHg 40%
    12:00 +28°C° 0 mm 3 mps 685 mmHg 39%
    13:00 +28°C° 0 mm 3 mps 684 mmHg 39%
    14:00 +28°C° 0 mm 3 mps 684 mmHg 40%
    15:00 +28°C° 0 mm 3 mps 684 mmHg 41%
    16:00 +25°C° 0 mm 2 mps 683 mmHg 49%
    17:00 +23°C° 0 mm 2 mps 683 mmHg 58%
    18:00 +21°C° 0 mm 1 mps 683 mmHg 66%
    19:00 +20°C° 0 mm 1 mps 683 mmHg 65%
    20:00 +19°C° 0 mm 2 mps 683 mmHg 64%
    21:00 +19°C° 0 mm 2 mps 684 mmHg 62%
    22:00 +19°C° 0.1 mm 2 mps 684 mmHg 61%
    23:00 +19°C° 0.1 mm 2 mps 684 mmHg 61%

    Day after tomorrow, 26 September, Wednesday

    Time Temperature Precipitation Wind Pressure Humidity
    00:00 +18°C° 0.1 mm 2 mps 684 mmHg 60%
    01:00 +18°C° 0 mm 2 mps 684 mmHg 63%
    02:00 +18°C° 0 mm 2 mps 684 mmHg 65%
    03:00 +17°C° 0 mm 2 mps 684 mmHg 67%
    04:00 +17°C° 0 mm 2 mps 684 mmHg 75%
    05:00 +16°C° 0 mm 3 mps 685 mmHg 82%
    06:00 +16°C° 0 mm 3 mps 685 mmHg 89%
    07:00 +17°C° 0 mm 3 mps 686 mmHg 84%
    08:00 +18°C° 0 mm 3 mps 686 mmHg 79%
    09:00 +19°C° 0 mm 4 mps 687 mmHg 74%
    10:00 +18°C° 0.1 mm 4 mps 687 mmHg 75%
    11:00 +18°C° 0.1 mm 4 mps 687 mmHg 75%
    12:00 +17°C° 0.1 mm 4 mps 687 mmHg 75%
    13:00 +17°C° 0 mm 4 mps 687 mmHg 74%
    14:00 +17°C° 0 mm 4 mps 687 mmHg 74%
    15:00 +17°C° 0 mm 4 mps 688 mmHg 73%
    16:00 +15°C° 0 mm 4 mps 688 mmHg 77%
    17:00 +14°C° 0 mm 4 mps 688 mmHg 80%
    18:00 +13°C° 0 mm 3 mps 688 mmHg 84%
    19:00 +12°C° 0 mm 3 mps 688 mmHg 84%
    20:00 +13°C° 0 mm 2 mps 689 mmHg 84%
    21:00 +13°C° 0 mm 2 mps 689 mmHg 85%
    22:00 +12°C° 0 mm 2 mps 689 mmHg 84%
    23:00 +12°C° 0 mm 2 mps 689 mmHg 84%

    27 September, Thursday

    Time Temperature Precipitation Wind Pressure Humidity
    00:00 +12°C° 0 mm 2 mps 689 mmHg 84%
    01:00 +12°C° 0 mm 2 mps 689 mmHg 84%
    02:00 +12°C° 0 mm 2 mps 689 mmHg 84%
    03:00 +12°C° 0 mm 2 mps 689 mmHg 84%
    04:00 +12°C° 0 mm 2 mps 689 mmHg 84%
    05:00 +10°C° 0 mm 2 mps 689 mmHg 85%
    06:00 +10°C° 0 mm 2 mps 689 mmHg 85%
    07:00 +13°C° 0 mm 2 mps 690 mmHg 79%
    08:00 +13°C° 0 mm 3 mps 690 mmHg 74%
    09:00 +16°C° 0 mm 3 mps 691 mmHg 68%
    10:00 +16°C° 0 mm 3 mps 691 mmHg 66%
    11:00 +17°C° 0 mm 3 mps 691 mmHg 64%
    12:00 +18°C° 0 mm 4 mps 691 mmHg 62%
    13:00 +17°C° 0 mm 4 mps 690 mmHg 64%
    14:00 +17°C° 0 mm 3 mps 690 mmHg 66%
    15:00 +17°C° 0 mm 3 mps 690 mmHg 68%
    16:00 +14°C° 0 mm 3 mps 690 mmHg 74%
    17:00 +14°C° 0 mm 2 mps 690 mmHg 79%
    18:00 +13°C° 0 mm 1 mps 690 mmHg 85%
    19:00 +13°C° 0 mm 1 mps 690 mmHg 85%
    20:00 +13°C° 0 mm 1 mps 690 mmHg 86%
    21:00 +12°C° 0 mm 1 mps 690 mmHg 86%
    22:00 +12°C° 0 mm 1 mps 690 mmHg 85%
    23:00 +12°C° 0 mm 1 mps 690 mmHg 84%

    28 September, Friday

    Time Temperature Precipitation Wind Pressure Humidity
    00:00 +12°C° 0 mm 1 mps 690 mmHg 83%
    01:00 +12°C° 0 mm 1 mps 689 mmHg 80%
    02:00 +12°C° 0 mm 1 mps 689 mmHg 78%
    03:00 +12°C° 0 mm 1 mps 689 mmHg 75%
    04:00 +12°C° 0 mm 1 mps 689 mmHg 74%
    05:00 +12°C° 0 mm 1 mps 689 mmHg 73%
    06:00 +12°C° 0 mm 1 mps 689 mmHg 71%
    07:00 +14°C° 0 mm 2 mps 690 mmHg 65%
    08:00 +16°C° 0 mm 2 mps 690 mmHg 59%
    09:00 +18°C° 0 mm 2 mps 691 mmHg 53%
    10:00 +19°C° 0 mm 3 mps 691 mmHg 53%
    11:00 +20°C° 0 mm 3 mps 691 mmHg 52%
    12:00 +21°C° 0 mm 4 mps 691 mmHg 51%
    13:00 +21°C° 0 mm 4 mps 690 mmHg 53%
    14:00 +21°C° 0 mm 4 mps 690 mmHg 55%
    15:00 +21°C° 0 mm 4 mps 689 mmHg 57%
    16:00 +19°C° 0 mm 3 mps 689 mmHg 65%
    17:00 +17°C° 0 mm 3 mps 689 mmHg 74%
    18:00 +15°C° 0 mm 2 mps 688 mmHg 82%
    19:00 +15°C° 0 mm 2 mps 688 mmHg 81%
    20:00 +15°C° 0 mm 2 mps 688 mmHg 79%
    21:00 +15°C° 0 mm 2 mps 688 mmHg 77%
    22:00 +15°C° 0 mm 2 mps 688 mmHg 75%
    23:00 +14°C° 0 mm 2 mps 688 mmHg 73%

    29 September, Saturday

    Time Temperature Precipitation Wind Pressure Humidity
    00:00 +14°C° 0 mm 2 mps 687 mmHg 71%
    01:00 +14°C° 0 mm 2 mps 687 mmHg 68%
    02:00 +14°C° 0 mm 2 mps 687 mmHg 65%
    03:00 +14°C° 0 mm 2 mps 687 mmHg 62%
    04:00 +14°C° 0 mm 2 mps 686 mmHg 60%
    05:00 +15°C° 0 mm 2 mps 686 mmHg 58%
    06:00 +15°C° 0 mm 2 mps 686 mmHg 55%
    07:00 +17°C° 0 mm 2 mps 687 mmHg 50%
    08:00 +20°C° 0 mm 2 mps 687 mmHg 45%
    09:00 +23°C° 0 mm 2 mps 687 mmHg 40%
    10:00 +24°C° 0 mm 2 mps 687 mmHg 40%
    11:00 +25°C° 0 mm 2 mps 687 mmHg 40%
    12:00 +26°C° 0 mm 3 mps 687 mmHg 39%
    13:00 +26°C° 0 mm 3 mps 686 mmHg 42%
    14:00 +26°C° 0 mm 3 mps 686 mmHg 44%
    15:00 +26°C° 0 mm 3 mps 685 mmHg 46%
    16:00 +24°C° 0 mm 2 mps 685 mmHg 55%
    17:00 +21°C° 0 mm 2 mps 685 mmHg 64%
    18:00 +19°C° 0 mm 1 mps 684 mmHg 74%
    19:00 +18°C° 0 mm 2 mps 684 mmHg 70%
    20:00 +18°C° 0 mm 2 mps 685 mmHg 67%
    21:00 +18°C° 0 mm 2 mps 685 mmHg 64%
    22:00 +18°C° 0 mm 2 mps 685 mmHg 59%
    23:00 +18°C° 0 mm 2 mps 684 mmHg 54%
    Show more